This demonstration page uses our WeatherBlox Daily Observations layout. Learn more.

Left ArrowRight Arrow

36.17497, -115.13722

Hourly Observations for April 19, 2016

Temp ( °F °C ) Dew Point ( °F °C ) Humidity (%) Winds ( mph kmh ) Pressure ( in mb ) Visibility ( mi km ) Precip ( " mm )
12:53 am 00:53 Clear 63 17.2 24 -4.4 23 23 NNW 7 11 30.06 1018 10 16.0934 0 0
1:53 am 01:53 Clear 63 17.2 23 -5 22 22 Calm 30.06 1018 10 16.0934 0 0
2:53 am 02:53 Clear 61 16.1 24 -4.4 24 24 W 3 6 30.05 1018 10 16.0934 0 0
3:53 am 03:53 Clear 60 15.6 24 -4.4 25 25 Calm 30.06 1018 10 16.0934 0 0
4:53 am 04:53 Clear 58 14.4 25 -3.9 28 28 N 6 9 30.05 1018 10 16.0934 0 0
5:53 am 05:53 Clear 58 14.4 25 -3.9 28 28 W 5 7 30.06 1018 10 16.0934 0 0
6:53 am 06:53 Sunny 59 15 25 -3.9 27 27 WNW 5 7 30.06 1018 10 16.0934 0 0
7:53 am 07:53 Sunny 64 17.8 26 -3.3 24 24 Calm 30.07 1018 10 16.0934 0 0
8:53 am 08:53 Sunny 68 20 23 -5 18 18 Calm 30.07 1018 10 16.0934 0 0
9:53 am 09:53 Sunny 71 21.7 23 -5 16 16 SE 5 7 30.07 1018 10 16.0934 0 0
10:53 am 10:53 Sunny 74 23.3 22 -5.6 14 14 ESE 5 7 30.07 1018 10 16.0934 0 0
11:53 am 11:53 Sunny 77 25 22 -5.6 13 13 E 6 9 30.05 1018 10 16.0934 0 0
12:53 pm 12:53 Sunny 79 26.1 22 -5.6 12 12 E 7 11 30.02 1017 10 16.0934 0 0
1:53 pm 13:53 Sunny 81 27.2 22 -5.6 11 11 SSW 8 13 29.99 1016 10 16.0934 0 0
2:53 pm 14:53 Sunny 82 27.8 21 -6.1 10 10 Calm 29.96 1015 10 16.0934 0 0
3:53 pm 15:53 Sunny 83 28.3 20 -6.7 10 10 Calm 29.93 1014 10 16.0934 0 0
4:53 pm 16:53 Sunny 83 28.3 20 -6.7 10 10 ESE 3 6 29.91 1013 10 16.0934 0 0
5:53 pm 17:53 Sunny 83 28.3 20 -6.7 10 10 SSE 3 6 29.89 1012 10 16.0934 0 0
6:53 pm 18:53 Sunny 81 27.2 20 -6.7 10 10 ESE 5 7 29.89 1012 10 16.0934 0 0
7:53 pm 19:53 Clear 79 26.1 22 -5.6 12 12 S 7 11 29.89 1012 10 16.0934 0 0
8:53 pm 20:53 Clear 77 25 22 -5.6 13 13 ESE 3 6 29.91 1013 10 16.0934 0 0
9:53 pm 21:53 Clear 72 22.2 26 -3.3 18 18 NW 3 6 29.91 1013 10 16.0934 0 0
10:53 pm 22:53 Clear 71 21.7 27 -2.8 19 19 NW 6 9 29.9 1013 10 16.0934 0 0
11:53 pm 23:53 Clear 69 20.6 29 -1.7 22 22 NW 6 9 29.89 1012 10 16.0934 0 0

Powered by AerisWeather